This is the latest recevied weather packets stored in our database for station/object SQ5DN-4. If no packets are shown the sender has not sent any weather packets the latest 10 day(s).
| Time | Temp. | Humidity | Pressure | Rain* | Wind** | Luminosity | Snow |
|---|---|---|---|---|---|---|---|
| 1778016772 | 17.78° C | 70% | 1002 hPa | - | - | - | - |
| 1778016222 | 17.78° C | 70% | 1002 hPa | - | - | - | - |
| 1778015647 | 18.33° C | 69% | 1002 hPa | - | - | - | - |
| 1778015152 | 18.33° C | 68% | 1002 hPa | - | - | - | - |
| 1778014612 | 18.33° C | 67% | 1002 hPa | - | - | - | - |
| 1778014037 | 18.89° C | 65% | 1002 hPa | - | - | - | - |
| 1778013532 | 18.33° C | 65% | 1002 hPa | - | - | - | - |
| 1778012976 | 18.33° C | 65% | 1002 hPa | - | - | - | - |
| 1778012432 | 18.33° C | 65% | 1002 hPa | - | - | - | - |
| 1778011867 | 18.33° C | 62% | 1002 hPa | - | - | - | - |
| 1778011307 | 18.89° C | 57% | 1002 hPa | - | - | - | - |
| 1778010712 | 20° C | 51% | 1002 hPa | - | - | - | - |
| 1778010172 | 20° C | 51% | 1002 hPa | - | - | - | - |
| 1778009592 | 20° C | 41% | 1002 hPa | - | - | - | - |
| 1778009092 | 20° C | 39% | 1001 hPa | - | - | - | - |
| 1778008496 | 21.67° C | 34% | 1001 hPa | - | - | - | - |
| 1778008016 | 22.78° C | 33% | 1001 hPa | - | - | - | - |
| 1778007437 | 22.78° C | 33% | 1001 hPa | - | - | - | - |
| 1778006892 | 22.78° C | 32% | 1001 hPa | - | - | - | - |
| 1778006367 | 22.78° C | 32% | 1001 hPa | - | - | - | - |
| 1778005816 | 22.78° C | 33% | 1001 hPa | - | - | - | - |
| 1778005216 | 22.78° C | 33% | 1001 hPa | - | - | - | - |
| 1778004696 | 23.33° C | 31% | 1001 hPa | - | - | - | - |
| 1778004162 | 23.33° C | 31% | 1001 hPa | - | - | - | - |
| 1778003587 | 23.89° C | 31% | 1001 hPa | - | - | - | - |
* Rain since midnight (hover to see other rain measurements)
** Current wind speed in m/s (hover to see current wind gust speed)